Location: Nairn
(57.5833°N, 3.8667°W)
Time: 22:26:50
(UTC+00:00)

Altair - Pass Details

Date: 05 October 2022
Orbit: 1501 x 1682 km, 47.2° (Epoch: 05 December)

Event Time Altitude Azimuth Distance (km) Brightness Sun altitude
Rises 05:44:07 0° 231° (SW) 4,783 9.6 -6.7°
Reaches altitude 10° 05:47:24 10° 224° (SW) 3,825 9.2 -6.2°
Maximum altitude 05:56:13 40° 160° (SSE) 2,272 8.6 -5.0°
Drops below altitude 10° 06:05:16 10° 96° (E) 3,936 11.7 -3.8°
Sets 06:08:42 0° 89° (E) 4,934 13.2 -3.4°
